NOAA 16 DEB, 42335

Orbit data source: Space-Track

NOAA 16 DEB, 42335 is space debris in SSO originally from a launch on Thu, 21 Sep 2000 UTC launched from the Air Force Western Test Range (AFWTR). Debris objects in space refer to the collection of defunct objects orbiting the Earth. Examples of debris include non-operational satellites, rocket bodies, and fragments generated from explosions, collisions, or faulty payload assembly.

Loading next visibility...
Identifier
42335, 2000-055QB
Orbit
SSO
Country
Flag of USUS
Related business
Manufacturer
Unknown
Mission
Spacecraft
Bus & Motor
Unknown
Mass
Unknown
Launch date (UTC)
2000-09-21 (25 years ago)
Launch vehicle
Unknown
Launch site
Air Force Western Test Range (AFWTR)
Object type
Payload
Rocket body
Debris
Shape & HBR
Unknown
Radar Cross Section
Small (<0.1 m²)

Expand to show TLE details & history
Last TLE update: 2 days ago

TLE from 2 days ago
0 NOAA 16 DEB
1 42335U 00055QB  25256.65865303  .00003003  00000-0  11067-2 0  9996
2 42335  98.5778 312.7891 0023190 290.6745  69.1953 14.33142519493554
Epoch: 2025-09-13T15:48Z
TLE epoch observation values (Epoch: 2025-09-13T15:48:27.621Z)
Latitude
-0.00005°
Longitude
82.78517°
Altitude
778.318 km
Speed
7.468 km/s
True Right ascension
20h 51m 09s
True Declination
0° 00' 00"
Sunlit
Object was in full shadow at epoch
Visualization orbit readout
Latitude
Unknown
Longitude
Unknown
Altitude
Unknown
Speed
Unknown
Apparent Right ascension
Unknown
Apparent Declination
Unknown
Sunlit
N/A
Visualization observer readout
Local Sidereal Time
05:01:08
Azimuth
Unknown
Elevation
Unknown
Doppler factor
Unknown
Orbital elements
Apogee altitude
794.977 km
Perigee altitude
761.785 km
Semi-major axis
7,156.518 km
Eccentricity
0.00232
Inclination
98.5778°
RAAN
312.7891°
Arg. of periapsis
290.6745°
True anomaly
69.44397°
Mean anomaly
69.1953°
Eccentric anomaly
69.31961°
Mean motion
3.58501 °/min
Orbital period
100.42 mins
BSTAR
0.0011067
Loading maneuver chart data...
Computing Atmospheric mass density...
Loading historical data...
Loading historical data...
Loading historical data...
Loading historical data...
Loading historical data...
Loading historical data...
Loading historical data...

Documentation

Showing up to 5 results
|